Back to catalog

PALAPA 2

AliveCommunicationsGEO
NORAD 9862·PAYLOAD·🇮🇩 Indonesia

Launched Mar 10, 1977 from Cape Canaveral Space Force Station

Loading…

TLE

FreshSource: Space-Track

Epoch: Sep 14, 2026, 01:31 UTC

1 09862U 77018A   26257.06352336 -.00000284  00000-0  00000-0 0  9993
2 09862   8.4942 309.7479 0002885 154.6037 207.7007  1.00038836144003

Track PALAPA 2 in real time with AllMySat

Download on the App Store